Home   Weather   Narragansett   Past weeks

Flag for USA Past Weather in Narragansett, Rhode Island, USA — Yesterday and Last 2 Weeks

Now
76 °F

Sunny.


Feels Like: 78 °F
Forecast: 62 / 77 °F
Wind: 5 mph from West

Location: Newport State Airport

Current Time: Aug 17, 2017 at 1:57:54 pm

Latest Report: Aug 17, 2017 at 12:53 pm


Visibility: 10 mi

Pressure: 30.04 "Hg

Humidity: 45%

Dew Point: 53 °F

Location of NarragansettLocation

Past Weather in Narragansett — Graph

°F

Narragansett Temperature Yesterday

Maximum temperature yesterday: 84 °F (at 2:53 pm)
Minimum temperature yesterday: 65 °F (at 12:53 am)
Average temperature yesterday: 73 °F

High & Low Weather Summary for the Past Weeks

 TemperatureHumidityPressure
High84 °F (Aug 13, 2:53 pm)100% (Aug 2, 9:53 pm)30.26 "Hg (Aug 2, 9:53 pm)
Low57 °F (Aug 9, 5:53 am)32% (Aug 11, 12:53 pm)29.83 "Hg (Aug 5, 5:53 pm)
Average70 °F87%30.02 "Hg
* Reported Aug 2 11:53 am — Aug 17 11:53 am, Narragansett. Weather by CustomWeather, © 2017

Note: Actual official high and low records may vary slightly from our data, if they occured in-between our weather recording intervals... More about our weather records

Advertising

Narragansett Weather History for the Previous 24 Hours

Scroll right to see more
 ConditionsComfort  
Time TempWeatherWind HumidityBarometerVisibility
11:53 am
Thu, Aug 17
75 °FSunny.3 mph47%30.05 "Hg10 mi
10:53 am72 °FSunny.6 mph53%30.06 "Hg10 mi
9:53 am72 °FSunny.5 mph46%30.07 "Hg10 mi
8:53 am71 °FSunny.3 mph53%30.06 "Hg10 mi
7:53 am66 °FSunny.7 mph61%30.06 "Hg10 mi
6:53 am63 °FSunny.7 mph65%30.05 "Hg10 mi
5:53 am63 °FClear.7 mph65%30.03 "Hg10 mi
4:53 am64 °FPassing clouds.7 mph65%30.03 "Hg10 mi
3:53 am66 °FPassing clouds.6 mph59%30.01 "Hg10 mi
2:53 am64 °FClear.7 mph70%30.00 "Hg10 mi
1:53 am66 °FClear.7 mph68%30.00 "Hg10 mi
12:53 am67 °FClear.5 mph79%30.00 "Hg10 mi
11:53 pm
Wed, Aug 16
69 °FPassing clouds.6 mph73%29.99 "Hg10 mi
10:53 pm68 °FClear.3 mph93%29.99 "Hg10 mi
9:53 pm68 °FClear.No wind93%29.98 "Hg9 mi
8:53 pm70 °FClear.No wind90%29.97 "Hg10 mi
7:53 pm74 °FPassing clouds.3 mph79%29.95 "Hg10 mi
6:53 pm76 °FScattered clouds.3 mph74%29.93 "Hg10 mi
5:53 pm77 °FPartly sunny.6 mph69%29.91 "Hg10 mi
4:53 pm82 °FSunny.No wind58%29.90 "Hg10 mi
3:53 pm84 °FSunny.6 mph48%29.90 "Hg10 mi
2:53 pm84 °FSunny.10 mph51%29.91 "Hg10 mi
1:53 pm83 °FSunny.8 mph53%29.91 "Hg10 mi
Weather by CustomWeather, © 2017

See weather overviewHow to use our weather pages